Torna al catalogo

SL-16 DEB

AttivoLEO
NORAD 39721·DEBRIS·🇷🇺 Russia

Lanciato Dec 25, 1992 da Baikonur Cosmodrome

Loading…

Prossimi Passaggi (prossime 24 ore)

TLE

In scadenzaSource: Space-Track

Epoca: Sep 12, 2026, 10:07 UTC

1 39721U 92093KM  26255.42173137  .00000142  00000-0  12650-3 0  9997
2 39721  71.1911  45.5591 0125532  36.7282 324.2352 13.96204234631565

Traccia SL-16 DEB in tempo reale con AllMySat

Download on the App Store